Weather History for KSLN - January, 2012

Change the Weather History Date:

Sunday, January 1, 2012

  Actual Average Record
Temperature  
Mean Temperature 39 °F 31 °F  
Max Temperature 48 °F 41 °F 71 °F (1939)
Min Temperature 29 °F 21 °F -12 °F (1924)
Degree Days  
Heating Degree Days 26 34  
Month to date heating degree days 26 34  
Since 1 July heating degree days 1911 1998  
Cooling Degree Days 0 0  
Month to date cooling degree days 0 0  
Year to date cooling degree days 0 0  
Moisture  
Dew Point 23 °F    
Average Humidity 55    
Maximum Humidity 78    
Minimum Humidity 31    
Precipitation  
Precipitation 0.00 in 0.02 in 1.06 in (1965)
Month to date precipitation 0.00 0.02  
Year to date precipitation 0.00 0.02  
Sea Level Pressure  
Sea Level Pressure 30.51 in    
Wind  
Wind Speed 14 mph (NW)    
Max Wind Speed 25 mph    
Max Gust Speed 31 mph    
Visibility 10 miles    
Events      
T = Trace of Precipitation, MM = Missing Value Source: NWS Daily Summary

Daily Weather History Graph

Daily Weather History Graph

Search for Another Location

Airport or City:

Trip Planner

Search our weather history database for the weather conditions in past years. The results will help you decide how hot, cold, wet, or windy it might be!

Date:

Astronomy

Jan. 01, 2012 Rise Set
Actual Time 7:48 AM CST 5:19 PM CST
Civil Twilight 7:19 AM CST 5:49 PM CST
Nautical Twilight 6:45 AM CST 6:22 PM CST
Astronomical Twilight 6:13 AM CST 6:54 PM CST
Moon 12:06 PM CST (1/1) 12:47 AM CST (1/1)
Length of Visible Light 10h 29m
Length of Day
9h 30m
First Quarter, 55% of the Moon is Illuminated
Jan 1
First Quarter
Jan 9
Full
Jan 16
Last Quarter
Jan 23
New
Jan 30
First Quarter

Hourly Weather History & Observations

Time (CST) Temp. Windchill Dew Point Humidity Pressure Visibility Wind Dir Wind Speed Gust Speed Precip Events Conditions
12:53 AM 39.0 °F 29.9 °F 28.0 °F 65% 30.19 in 10.0 mi WNW 17.3 mph - N/A   Clear
1:53 AM 37.4 °F 27.5 °F 28.4 °F 70% 30.24 in 10.0 mi WNW 18.4 mph - N/A   Clear
2:53 AM 37.0 °F 26.7 °F 28.0 °F 70% 30.30 in 10.0 mi NW 19.6 mph - N/A   Clear
3:53 AM 35.1 °F 24.8 °F 27.0 °F 72% 30.33 in 10.0 mi NW 17.3 mph - N/A   Clear
4:53 AM 33.1 °F 24.9 °F 26.1 °F 75% 30.36 in 10.0 mi WNW 10.4 mph - N/A   Clear
5:53 AM 30.9 °F 24.3 °F 25.0 °F 79% 30.39 in 10.0 mi WNW 6.9 mph - N/A   Clear
6:53 AM 30.0 °F 21.1 °F 25.0 °F 82% 30.41 in 10.0 mi WNW 10.4 mph - N/A   Clear
7:53 AM 30.2 °F 20.8 °F 24.8 °F 80% 30.44 in 10.0 mi WNW 11.5 mph - N/A   Clear
8:53 AM 33.1 °F 23.9 °F 26.1 °F 75% 30.51 in 10.0 mi NW 12.7 mph - N/A   Clear
9:53 AM 37.0 °F 28.5 °F 26.1 °F 65% 30.56 in 10.0 mi WNW 13.8 mph - N/A   Clear
10:53 AM 41.0 °F 32.2 °F 21.2 °F 45% 30.56 in 10.0 mi NNW 18.4 mph - N/A   Clear
11:53 AM 45.0 °F 38.5 °F 16.0 °F 31% 30.57 in 10.0 mi NW 13.8 mph - N/A   Clear
12:53 PM 46.0 °F 39.6 °F 21.0 °F 37% 30.56 in 10.0 mi NW 15.0 mph 21.9 mph N/A   Clear
1:53 PM 46.9 °F - 21.9 °F 37% 30.53 in 10.0 mi WNW 19.6 mph 27.6 mph N/A   Clear
2:53 PM 46.9 °F - 25.0 °F 42% 30.54 in 10.0 mi NW 17.3 mph - N/A   Clear
3:53 PM 46.9 °F - 25.0 °F 42% 30.55 in 10.0 mi NW 17.3 mph 25.3 mph N/A   Clear
4:53 PM 42.8 °F 35.4 °F 24.8 °F 49% 30.55 in 10.0 mi NW 15.0 mph - N/A   Clear
5:53 PM 39.0 °F 31.8 °F 24.1 °F 55% 30.60 in 10.0 mi NW 11.5 mph - N/A   Clear
6:53 PM 33.1 °F 26.1 °F 23.0 °F 66% 30.63 in 10.0 mi WNW 8.1 mph - N/A   Clear
7:53 PM 33.1 °F 26.1 °F 23.0 °F 66% 30.64 in 10.0 mi NW 8.1 mph - N/A   Clear
8:53 PM 35.1 °F 27.4 °F 19.0 °F 52% 30.66 in 10.0 mi NNW 10.4 mph - N/A   Clear
9:53 PM 34.0 °F 24.6 °F 16.0 °F 48% 30.68 in 10.0 mi North 13.8 mph - N/A   Clear
10:53 PM 30.2 °F 18.5 °F 10.4 °F 44% 30.66 in 10.0 mi North 17.3 mph 24.2 mph N/A   Clear
11:53 PM 30.2 °F 19.8 °F 12.2 °F 47% 30.66 in 10.0 mi NNW 13.8 mph - N/A   Clear